| time (UTC) | temp C | wind direction | speed KPH | gust KPH | rain 1hr cm | rain 24hr cm | rain mn cm | humidity % | barometer mb |
| 20260503013030 | 15 | 5 | 1.6 | 16.1 | 0.00 | 0.00 | 0.00 | 43 | 1008.9 |
| 20260503011629 | 15 | 5 | 0.0 | 3.2 | 0.00 | 0.00 | 0.00 | 43 | 1008.9 |
| 20260503010053 | 16 | 5 | 1.6 | 4.8 | 0.00 | 0.00 | 0.00 | 42 | 1009.0 |
| 20260503004513 | 16 | 5 | 3.2 | 8.0 | 0.00 | 0.00 | 0.00 | 42 | 1009.1 |
| 20260503003117 | 16 | 5 | 1.6 | 4.8 | 0.00 | 0.00 | 0.00 | 42 | 1009.3 |
| 20260503001528 | 16 | 5 | 3.2 | 6.4 | 0.00 | 0.00 | 0.00 | 41 | 1009.4 |
| 20260503000133 | 16 | 5 | 3.2 | 6.4 | 0.00 | 0.00 | 0.00 | 40 | 1009.5 |
| 20260502234552 | 16 | 5 | 3.2 | 8.0 | 0.00 | 0.00 | 0.00 | 40 | 1009.7 |
| 20260502233011 | 16 | 5 | 1.6 | 6.4 | 0.00 | 0.00 | 0.00 | 40 | 1009.9 |
| 20260502231605 | 16 | 5 | 1.6 | 6.4 | 0.00 | 0.00 | 0.00 | 39 | 1010.0 |
| 20260502230020 | 16 | 5 | 3.2 | 8.0 | 0.00 | 0.00 | 0.00 | 37 | 1010.1 |
| 20260502224620 | 16 | 5 | 3.2 | 6.4 | 0.00 | 0.00 | 0.00 | 37 | 1010.2 |
| 20260502223036 | 16 | 5 | 3.2 | 16.1 | 0.00 | 0.00 | 0.00 | 37 | 1010.5 |
| 20260502221629 | 16 | 5 | 3.2 | 12.9 | 0.00 | 0.00 | 0.00 | 38 | 1010.5 |
| 20260502220050 | 16 | 5 | 3.2 | 8.0 | 0.00 | 0.00 | 0.00 | 38 | 1010.7 |
| 20260502214537 | 16 | 5 | 3.2 | 12.9 | 0.00 | 0.00 | 0.00 | 37 | 1011.0 |
| 20260502213131 | 16 | 5 | 4.8 | 16.1 | 0.00 | 0.00 | 0.00 | 35 | 1011.2 |
| 20260502211558 | 16 | 5 | 4.8 | 12.9 | 0.00 | 0.00 | 0.00 | 36 | 1011.4 |
| 20260502210017 | 16 | 5 | 3.2 | 14.5 | 0.00 | 0.00 | 0.00 | 36 | 1011.8 |
| 20260502204611 | 17 | 5 | 6.4 | 16.1 | 0.00 | 0.00 | 0.00 | 32 | 1011.9 |
| 20260502203036 | 17 | 5 | 8.0 | 16.1 | 0.00 | 0.00 | 0.00 | 36 | 1012.3 |
| 20260502201619 | 17 | 5 | 6.4 | 16.1 | 0.00 | 0.00 | 0.00 | 35 | 1012.6 |
| 20260502200056 | 17 | 5 | 1.6 | 17.7 | 0.00 | 0.00 | 0.00 | 34 | 1012.9 |
| 20260502194503 | 17 | 5 | 4.8 | 19.3 | 0.00 | 0.00 | 0.00 | 35 | 1013.1 |
| 20260502193103 | 16 | 5 | 4.8 | 19.3 | 0.00 | 0.00 | 0.00 | 36 | 1013.3 |
| 20260502191517 | 16 | 5 | 3.2 | 17.7 | 0.00 | 0.00 | 0.00 | 35 | 1013.6 |
| 20260502190116 | 16 | 5 | 4.8 | 19.3 | 0.00 | 0.00 | 0.00 | 38 | 1014.0 |
| 20260502184538 | 16 | 5 | 3.2 | 12.9 | 0.00 | 0.00 | 0.00 | 41 | 1014.3 |
| 20260502183131 | 15 | 5 | 4.8 | 12.9 | 0.00 | 0.00 | 0.00 | 37 | 1014.5 |
| 20260502181559 | 15 | 5 | 4.8 | 14.5 | 0.00 | 0.00 | 0.00 | 38 | 1014.6 |
| 20260502163055 | 13 | 5 | 1.6 | 9.7 | 0.00 | 0.00 | 0.00 | 40 | 1016.2 |
| 20260502161511 | 12 | 5 | 3.2 | 9.7 | 0.00 | 0.00 | 0.00 | 40 | 1016.5 |
| 20260502160108 | 11 | 5 | 3.2 | 14.5 | 0.00 | 0.00 | 0.00 | 42 | 1016.7 |
| 20260502151538 | 10 | 5 | 3.2 | 9.7 | 0.00 | 0.00 | 0.00 | 47 | 1017.1 |
| 20260502150134 | 9 | 5 | 1.6 | 8.0 | 0.00 | 0.00 | 0.00 | 53 | 1017.2 |
| 20260502123108 | 0 | 5 | 1.6 | 4.8 | 0.00 | 0.00 | 0.00 | 84 | 1017.7 |
| 20260502121524 | 0 | 5 | 0.0 | 3.2 | 0.00 | 0.00 | 0.00 | 83 | 1017.6 |
| 20260502120116 | -1 | 5 | 0.0 | 3.2 | 0.00 | 0.00 | 0.00 | 82 | 1017.7 |
| 20260502114539 | -1 | 5 | 0.0 | 1.6 | 0.00 | 0.00 | 0.00 | 81 | 1017.7 |
| 20260502113125 | -1 | 5 | 0.0 | 1.6 | 0.00 | 0.00 | 0.00 | 80 | 1017.6 |
| 20260502111546 | -1 | 5 | 0.0 | 1.6 | 0.00 | 0.00 | 0.00 | 79 | 1017.5 |
| 20260502110045 | -1 | 5 | 0.0 | 1.6 | 0.00 | 0.00 | 0.00 | 78 | 1017.5 |
| 20260502104628 | -1 | 5 | 0.0 | 1.6 | 0.00 | 0.00 | 0.00 | 78 | 1017.5 |
| 20260502103108 | 0 | 5 | 0.0 | 1.6 | 0.00 | 0.00 | 0.00 | 78 | 1017.5 |
| 20260502101508 | 0 | 5 | 0.0 | 1.6 | 0.00 | 0.00 | 0.00 | 78 | 1017.4 |
| 20260502091533 | 0 | 5 | 0.0 | 1.6 | 0.00 | 0.00 | 0.00 | 76 | 1017.3 |
| 20260502090135 | 0 | 5 | 0.0 | 1.6 | 0.00 | 0.00 | 0.00 | 76 | 1017.3 |
| 20260502071507 | 1 | 5 | 0.0 | 1.6 | 0.00 | 0.00 | 0.00 | 74 | 1017.5 |
| 20260502070106 | 1 | 5 | 0.0 | 1.6 | 0.00 | 0.00 | 0.00 | 74 | 1017.6 |
| 20260502064523 | 1 | 5 | 1.6 | 3.2 | 0.00 | 0.00 | 0.00 | 73 | 1017.7 |
| 20260502063127 | 1 | 5 | 0.0 | 3.2 | 0.00 | 0.00 | 0.00 | 72 | 1017.7 |
| 20260502061528 | 1 | 5 | 0.0 | 1.6 | 0.00 | 0.00 | 0.00 | 70 | 1017.7 |
| 20260502060118 | 2 | 5 | 0.0 | 1.6 | 0.00 | 0.00 | 0.00 | 71 | 1017.7 |
| 20260502054551 | 2 | 5 | 0.0 | 1.6 | 0.00 | 0.00 | 0.00 | 70 | 1017.7 |
| 20260502053133 | 2 | 5 | 0.0 | 3.2 | 0.00 | 0.00 | 0.00 | 67 | 1017.7 |
| 20260502051549 | 2 | 5 | 0.0 | 1.6 | 0.00 | 0.00 | 0.00 | 66 | 1017.7 |
| 20260502050003 | 3 | 5 | 0.0 | 1.6 | 0.00 | 0.00 | 0.00 | 66 | 1017.6 |
| 20260502044606 | 3 | 5 | 0.0 | 1.6 | 0.00 | 0.00 | 0.00 | 65 | 1017.6 |
| 20260502043031 | 4 | 5 | 0.0 | 1.6 | 0.00 | 0.00 | 0.00 | 62 | 1017.6 |
| 20260502041617 | 5 | 5 | 0.0 | 3.2 | 0.00 | 0.00 | 0.00 | 59 | 1017.7 |
| 20260502040048 | 5 | 5 | 1.6 | 3.2 | 0.00 | 0.00 | 0.00 | 57 | 1017.7 |
| 20260502034501 | 6 | 5 | 0.0 | 3.2 | 0.00 | 0.00 | 0.00 | 56 | 1017.6 |
| 20260502033101 | 6 | 5 | 0.0 | 3.2 | 0.00 | 0.00 | 0.00 | 55 | 1017.8 |
| 20260502031519 | 6 | 5 | 0.0 | 1.6 | 0.00 | 0.00 | 0.00 | 52 | 1017.7 |
| 20260502030117 | 7 | 5 | 0.0 | 1.6 | 0.00 | 0.00 | 0.00 | 52 | 1017.6 |
| 20260502024532 | 7 | 5 | 0.0 | 1.6 | 0.00 | 0.00 | 0.00 | 49 | 1017.6 |
| 20260502023131 | 7 | 5 | 0.0 | 1.6 | 0.00 | 0.00 | 0.00 | 50 | 1017.5 |
| 20260502021557 | 8 | 5 | 0.0 | 1.6 | 0.00 | 0.00 | 0.00 | 48 | 1017.5 |
| 20260502020012 | 8 | 5 | 0.0 | 1.6 | 0.00 | 0.00 | 0.00 | 47 | 1017.4 |
| 20260502014614 | 8 | 5 | 0.0 | 1.6 | 0.00 | 0.00 | 0.00 | 45 | 1017.3 |